When you browse on this site, cookies collect data to enhance your experience and personalize the content and advertising you see.
Visit our Privacy Policy to learn more. By continuing to use the site, you agree to this use of cookies and data.
  • In Germany
  • List of Countries
  • For 7 days
  • Water Temperature
  • Weather Map
  • Weather Widgets
  • user-avatar
    Login

    Hourly Weather Hrodna

    Today, 2 June, Tuesday

    Time Temperature Precipitation Wind Pressure Humidity
    00:00 +8°C° 0 mm 3 mps 751 mmHg 78%
    01:00 +7°C° 0 mm 3 mps 751 mmHg 80%
    02:00 +5°C° 0 mm 3 mps 751 mmHg 82%
    03:00 +5°C° 0 mm 3 mps 750 mmHg 82%
    04:00 +5°C° 0 mm 4 mps 750 mmHg 82%
    05:00 +5°C° 0 mm 4 mps 750 mmHg 82%
    06:00 +7°C° 0 mm 5 mps 750 mmHg 78%
    07:00 +8°C° 0 mm 6 mps 749 mmHg 73%
    08:00 +10°C° 0 mm 6 mps 749 mmHg 68%
    09:00 +11°C° 0 mm 7 mps 749 mmHg 65%
    10:00 +14°C° 0 mm 7 mps 749 mmHg 61%
    11:00 +15°C° 0 mm 7 mps 748 mmHg 57%
    12:00 +15°C° 0 mm 7 mps 748 mmHg 58%
    13:00 +15°C° 0 mm 6 mps 748 mmHg 60%
    14:00 +15°C° 0 mm 5 mps 748 mmHg 61%
    15:00 +15°C° 0.1 mm 5 mps 747 mmHg 64%
    16:00 +15°C° 0.1 mm 5 mps 747 mmHg 66%
    17:00 +14°C° 0.1 mm 5 mps 746 mmHg 68%
    18:00 +13°C° 0.1 mm 4 mps 746 mmHg 74%
    19:00 +12°C° 0.1 mm 4 mps 746 mmHg 79%
    20:00 +11°C° 0.1 mm 3 mps 746 mmHg 84%
    21:00 +10°C° 0 mm 3 mps 746 mmHg 85%
    22:00 +10°C° 0 mm 3 mps 745 mmHg 86%
    23:00 +9°C° 0 mm 3 mps 745 mmHg 87%

    Tomorrow, 3 June, Wednesday

    Time Temperature Precipitation Wind Pressure Humidity
    00:00 +9°C° 0 mm 3 mps 745 mmHg 88%
    01:00 +9°C° 0 mm 3 mps 745 mmHg 89%
    02:00 +9°C° 0 mm 3 mps 745 mmHg 90%
    03:00 +9°C° 0.1 mm 3 mps 745 mmHg 91%
    04:00 +9°C° 0.1 mm 3 mps 744 mmHg 92%
    05:00 +9°C° 0.1 mm 3 mps 744 mmHg 93%
    06:00 +9°C° 0.1 mm 3 mps 744 mmHg 91%
    07:00 +10°C° 0.1 mm 3 mps 744 mmHg 89%
    08:00 +10°C° 0.1 mm 3 mps 744 mmHg 86%
    09:00 +11°C° 0.1 mm 3 mps 744 mmHg 82%
    10:00 +12°C° 0.1 mm 3 mps 744 mmHg 78%
    11:00 +13°C° 0.1 mm 4 mps 743 mmHg 73%
    12:00 +13°C° 0.6 mm 4 mps 743 mmHg 73%
    13:00 +14°C° 0.6 mm 4 mps 743 mmHg 73%
    14:00 +15°C° 0.6 mm 5 mps 743 mmHg 74%
    15:00 +14°C° 0.5 mm 4 mps 742 mmHg 77%
    16:00 +13°C° 0.5 mm 3 mps 742 mmHg 81%
    17:00 +12°C° 0.5 mm 3 mps 741 mmHg 85%
    18:00 +12°C° 0.1 mm 3 mps 741 mmHg 87%
    19:00 +11°C° 0.1 mm 3 mps 741 mmHg 89%
    20:00 +11°C° 0.1 mm 3 mps 741 mmHg 91%
    21:00 +10°C° 0 mm 2 mps 741 mmHg 92%
    22:00 +9°C° 0 mm 2 mps 741 mmHg 94%
    23:00 +8°C° 0 mm 2 mps 741 mmHg 95%

    Day after tomorrow, 4 June, Thursday

    Time Temperature Precipitation Wind Pressure Humidity
    00:00 +8°C° 0 mm 2 mps 740 mmHg 96%
    01:00 +8°C° 0 mm 2 mps 740 mmHg 96%
    02:00 +7°C° 0 mm 2 mps 740 mmHg 96%
    03:00 +7°C° 0 mm 2 mps 740 mmHg 97%
    04:00 +7°C° 0 mm 2 mps 740 mmHg 97%
    05:00 +7°C° 0 mm 2 mps 740 mmHg 98%
    06:00 +8°C° 0 mm 2 mps 740 mmHg 94%
    07:00 +9°C° 0 mm 2 mps 740 mmHg 90%
    08:00 +12°C° 0 mm 2 mps 740 mmHg 86%
    09:00 +13°C° 0 mm 1 mps 740 mmHg 80%
    10:00 +14°C° 0 mm 1 mps 740 mmHg 74%
    11:00 +15°C° 0 mm 1 mps 739 mmHg 67%
    12:00 +18°C° 0.1 mm 1 mps 739 mmHg 63%
    13:00 +19°C° 0.1 mm 1 mps 739 mmHg 59%
    14:00 +18°C° 0.1 mm 0 mps 739 mmHg 56%
    15:00 +18°C° 0.1 mm 0 mps 739 mmHg 55%
    16:00 +20°C° 0.1 mm 1 mps 739 mmHg 55%
    17:00 +19°C° 0.1 mm 1 mps 739 mmHg 54%
    18:00 +18°C° 0 mm 1 mps 739 mmHg 61%
    19:00 +16°C° 0 mm 1 mps 739 mmHg 68%
    20:00 +15°C° 0 mm 1 mps 739 mmHg 74%
    21:00 +13°C° 0 mm 1 mps 739 mmHg 78%
    22:00 +12°C° 0 mm 1 mps 739 mmHg 81%
    23:00 +11°C° 0 mm 1 mps 739 mmHg 85%

    5 June, Friday

    Time Temperature Precipitation Wind Pressure Humidity
    00:00 +11°C° 0 mm 1 mps 739 mmHg 86%
    01:00 +10°C° 0 mm 1 mps 739 mmHg 86%
    02:00 +10°C° 0 mm 1 mps 739 mmHg 87%
    03:00 +9°C° 0 mm 2 mps 739 mmHg 88%
    04:00 +9°C° 0 mm 2 mps 739 mmHg 89%
    05:00 +9°C° 0 mm 2 mps 739 mmHg 90%
    06:00 +11°C° 0 mm 3 mps 739 mmHg 85%
    07:00 +13°C° 0 mm 4 mps 739 mmHg 80%
    08:00 +15°C° 0 mm 5 mps 739 mmHg 75%
    09:00 +17°C° 0 mm 5 mps 739 mmHg 72%
    10:00 +19°C° 0 mm 6 mps 738 mmHg 70%
    11:00 +20°C° 0 mm 7 mps 738 mmHg 67%
    12:00 +21°C° 0.2 mm 7 mps 738 mmHg 70%
    13:00 +21°C° 0.2 mm 6 mps 738 mmHg 72%
    14:00 +22°C° 0.2 mm 6 mps 737 mmHg 74%
    15:00 +22°C° 0.8 mm 6 mps 738 mmHg 76%
    16:00 +22°C° 0.8 mm 6 mps 738 mmHg 79%
    17:00 +21°C° 0.8 mm 5 mps 738 mmHg 81%
    18:00 +20°C° 0.1 mm 5 mps 738 mmHg 83%
    19:00 +19°C° 0.1 mm 4 mps 738 mmHg 85%
    20:00 +18°C° 0.1 mm 4 mps 738 mmHg 87%
    21:00 +17°C° 0 mm 3 mps 739 mmHg 89%
    22:00 +16°C° 0 mm 2 mps 739 mmHg 92%
    23:00 +14°C° 0 mm 1 mps 740 mmHg 94%

    6 June, Saturday

    Time Temperature Precipitation Wind Pressure Humidity
    00:00 +14°C° 0 mm 1 mps 740 mmHg 94%
    01:00 +14°C° 0 mm 1 mps 740 mmHg 94%
    02:00 +14°C° 0 mm 2 mps 739 mmHg 94%
    03:00 +14°C° 0.1 mm 2 mps 739 mmHg 95%
    04:00 +15°C° 0.1 mm 2 mps 739 mmHg 95%
    05:00 +14°C° 0.1 mm 3 mps 739 mmHg 96%
    06:00 +14°C° 0.5 mm 3 mps 739 mmHg 96%
    07:00 +15°C° 0.5 mm 4 mps 739 mmHg 95%
    08:00 +15°C° 0.5 mm 4 mps 740 mmHg 95%
    09:00 +14°C° 0.4 mm 5 mps 740 mmHg 94%
    10:00 +12°C° 0.4 mm 5 mps 741 mmHg 94%
    11:00 +10°C° 0.4 mm 5 mps 741 mmHg 93%
    12:00 +12°C° 0 mm 4 mps 741 mmHg 88%
    13:00 +14°C° 0 mm 4 mps 742 mmHg 82%
    14:00 +15°C° 0 mm 4 mps 742 mmHg 76%
    15:00 +17°C° 0 mm 4 mps 743 mmHg 72%
    16:00 +18°C° 0 mm 4 mps 743 mmHg 67%
    17:00 +19°C° 0 mm 4 mps 743 mmHg 63%
    18:00 +18°C° 0.1 mm 4 mps 743 mmHg 70%
    19:00 +17°C° 0.1 mm 3 mps 744 mmHg 76%
    20:00 +16°C° 0.1 mm 3 mps 744 mmHg 82%
    21:00 +14°C° 0 mm 3 mps 744 mmHg 85%
    22:00 +12°C° 0 mm 3 mps 745 mmHg 87%
    23:00 +12°C° 0 mm 2 mps 746 mmHg 90%

    7 June, Sunday

    Time Temperature Precipitation Wind Pressure Humidity
    00:00 +11°C° 0 mm 3 mps 746 mmHg 91%
    01:00 +11°C° 0 mm 3 mps 746 mmHg 92%
    02:00 +11°C° 0 mm 3 mps 746 mmHg 94%
    03:00 +11°C° 0 mm 3 mps 747 mmHg 94%
    04:00 +11°C° 0 mm 3 mps 747 mmHg 94%
    05:00 +11°C° 0 mm 3 mps 747 mmHg 94%
    06:00 +13°C° 0 mm 3 mps 748 mmHg 87%
    07:00 +16°C° 0 mm 3 mps 748 mmHg 80%
    08:00 +17°C° 0 mm 3 mps 748 mmHg 73%
    09:00 +19°C° 0 mm 3 mps 749 mmHg 69%
    10:00 +20°C° 0 mm 3 mps 749 mmHg 65%
    11:00 +21°C° 0 mm 4 mps 749 mmHg 60%
    12:00 +21°C° 0.1 mm 4 mps 749 mmHg 62%
    13:00 +22°C° 0.1 mm 4 mps 749 mmHg 63%
    14:00 +22°C° 0.1 mm 4 mps 749 mmHg 64%
    15:00 +22°C° 0.2 mm 3 mps 749 mmHg 65%
    16:00 +23°C° 0.2 mm 2 mps 749 mmHg 66%
    17:00 +23°C° 0.2 mm 2 mps 749 mmHg 67%
    18:00 +21°C° 0.2 mm 2 mps 749 mmHg 72%
    19:00 +20°C° 0.2 mm 2 mps 749 mmHg 78%
    20:00 +19°C° 0.2 mm 2 mps 749 mmHg 83%
    21:00 +18°C° 0.3 mm 2 mps 749 mmHg 85%
    22:00 +17°C° 0.3 mm 2 mps 749 mmHg 88%
    23:00 +17°C° 0.3 mm 2 mps 750 mmHg 90%
    Show more